Lake Clear, NY

12:51 PM EST on February 22, 2017 (GMT -0500)
Adirondack Regional

Weather History for KSLK - January, 2013

Change the Weather History Date:

Wednesday, January 9, 2013

  Actual Average Record
Temperature  
Mean Temperature 20 °F 14 °F  
Max Temperature 37 °F 25 °F 52 °F (1978)
Min Temperature 2 °F 2 °F -32 °F (2004)
Degree Days  
Heating Degree Days 45 51  
Month to date heating degree days 467 459  
Since 1 July heating degree days 3841 4158  
Cooling Degree Days 0 0  
Month to date cooling degree days 0  
Year to date cooling degree days 0  
Moisture  
Dew Point 16 °F    
Average Humidity 85    
Maximum Humidity 100    
Minimum Humidity 69    
Precipitation  
Precipitation 0.01 in 0.07 in 2.22 in (1978)
Month to date precipitation 0.19 0.66  
Year to date precipitation 0.19 0.66  
Sea Level Pressure  
Sea Level Pressure 30.14 in    
Wind  
Wind Speed 8 mph (WSW)    
Max Wind Speed 23 mph    
Max Gust Speed 38 mph    
Visibility 4 miles    
Events Fog , Snow    
T = Trace of Precipitation, MM = Missing Value Source: NWS Daily Summary

Daily Weather History Graph

Daily Weather History Graph

Search for Another Location

Airport or City:

Trip Planner

Search our weather history database for the weather conditions in past years. The results will help you decide how hot, cold, wet, or windy it might be!

Date:

Astronomy

Jan. 09, 2013 Rise Set
Actual Time 7:31 AM EST 4:36 PM EST
Civil Twilight 6:59 AM EST 5:09 PM EST
Nautical Twilight 6:22 AM EST 5:45 PM EST
Astronomical Twilight 5:47 AM EST 6:20 PM EST
Moon 5:08 AM EST (1/9) 2:35 PM EST (1/9)
Length of Visible Light 10h 10m
Length of Day
9h 04m
Waning Crescent, 6% of the Moon is Illuminated
Jan 9
Waning Crescent
Jan 11
New
Jan 18
First Quarter
Jan 26
Full
Feb 3
Last Quarter

Hourly Weather History & Observations

Time (EST) Temp. Windchill Dew Point Humidity Pressure Visibility Wind Dir Wind Speed Gust Speed Precip Events Conditions
12:05 AM 24.8 °F - 23.0 °F 93% 30.26 in 6.0 mi Calm Calm - N/A   Scattered Clouds
12:45 AM 23.0 °F - 21.2 °F 93% 30.25 in 1.8 mi Calm Calm - N/A   Clear
12:51 AM 21.0 °F - 21.0 °F 100% 30.32 in 1.2 mi Calm Calm - N/A   Clear
1:02 AM 19.4 °F - 17.6 °F 93% 30.24 in 0.5 mi Calm Calm - N/A Fog Light Freezing Fog
1:11 AM 21.2 °F - 19.4 °F 93% 30.24 in 0.2 mi Calm Calm - N/A Fog Light Freezing Fog
1:24 AM 21.2 °F - 21.2 °F 100% 30.24 in 1.0 mi Calm Calm - N/A   Mist
1:31 AM 21.2 °F - 19.4 °F 93% 30.24 in 1.8 mi Calm Calm - N/A   Partly Cloudy
1:51 AM 19.9 °F - 19.0 °F 96% 30.32 in 0.5 mi Calm Calm - N/A Fog Light Freezing Fog
1:57 AM 19.4 °F - 19.4 °F 100% 30.25 in 2.0 mi Calm Calm - N/A   Partly Cloudy
2:04 AM 19.4 °F - 17.6 °F 93% 30.24 in 4.0 mi Calm Calm - N/A   Partly Cloudy
2:11 AM 19.4 °F - 17.6 °F 93% 30.24 in 1.5 mi Calm Calm - N/A   Clear
2:17 AM 19.4 °F - 17.6 °F 93% 30.24 in 0.2 mi Calm Calm - N/A Fog Light Freezing Fog
2:38 AM 19.4 °F - 15.8 °F 86% 30.24 in 1.0 mi Calm Calm - N/A   Mist
2:40 AM 17.6 °F - 15.8 °F 93% 30.24 in 2.5 mi Calm Calm - N/A   Partly Cloudy
2:47 AM 15.8 °F - 12.2 °F 86% 30.23 in 4.0 mi Calm Calm - N/A   Partly Cloudy
2:51 AM 15.1 °F - 12.9 °F 91% 30.31 in 3.0 mi Calm Calm - N/A   Clear
3:14 AM 15.8 °F - 12.2 °F 86% 30.24 in 1.8 mi Calm Calm - N/A   Clear
3:26 AM 15.8 °F - 14.0 °F 93% 30.23 in 3.0 mi Calm Calm - N/A   Clear
3:51 AM 12.0 °F - 10.0 °F 92% 30.29 in 5.0 mi Calm Calm - N/A   Clear
4:08 AM 12.2 °F - 10.4 °F 92% 30.21 in 2.5 mi Calm Calm - N/A   Partly Cloudy
4:13 AM 12.2 °F - 10.4 °F 92% 30.21 in 1.0 mi Calm Calm - N/A   Mist
4:17 AM 12.2 °F - 10.4 °F 92% 30.20 in 0.2 mi Calm Calm - N/A Fog Light Freezing Fog
4:25 AM 12.2 °F - 10.4 °F 92% 30.21 in 1.0 mi Calm Calm - N/A   Mist
4:27 AM 12.2 °F - 10.4 °F 92% 30.21 in 2.5 mi Calm Calm - N/A   Scattered Clouds
4:29 AM 12.2 °F - 10.4 °F 92% 30.21 in 4.0 mi Calm Calm - N/A   Mostly Cloudy
4:44 AM 12.2 °F - 8.6 °F 85% 30.20 in 1.5 mi Calm Calm - N/A   Mist
4:48 AM 10.4 °F - 6.8 °F 85% 30.20 in 0.2 mi Calm Calm - N/A Fog Light Freezing Fog
4:51 AM 10.0 °F - 7.0 °F 87% 30.29 in 0.2 mi Calm Calm - N/A Fog Light Freezing Fog
4:57 AM 8.6 °F - 6.8 °F 92% 30.20 in 1.2 mi Calm Calm - N/A   Mist
4:59 AM 8.6 °F - 8.6 °F 100% 30.20 in 3.0 mi Calm Calm - N/A   Mist
5:12 AM 10.4 °F - 8.6 °F 92% 30.20 in 1.0 mi Calm Calm - N/A   Mist
5:15 AM 10.4 °F - 8.6 °F 92% 30.20 in 0.2 mi Calm Calm - N/A Fog Light Freezing Fog
5:28 AM 10.4 °F - 6.8 °F 85% 30.20 in 1.2 mi Calm Calm - N/A   Overcast
5:36 AM 6.8 °F - 5.0 °F 92% 30.20 in 6.0 mi Calm Calm - N/A   Overcast
5:39 AM 6.8 °F - 5.0 °F 92% 30.20 in 1.8 mi Calm Calm - N/A   Overcast
5:44 AM 6.8 °F - 5.0 °F 92% 30.20 in 0.2 mi Calm Calm - N/A Fog Light Freezing Fog
5:51 AM 8.1 °F - 6.1 °F 92% 30.29 in 0.2 mi Calm Calm - N/A Fog Light Freezing Fog
6:51 AM 5.0 °F - 1.9 °F 87% 30.28 in 0.2 mi Calm Calm - N/A Fog Light Freezing Fog
7:15 AM 5.0 °F - 1.4 °F 85% 30.18 in 1.0 mi Calm Calm - N/A   Mist
7:18 AM 5.0 °F - 1.4 °F 85% 30.18 in 3.0 mi Calm Calm - N/A   Mostly Cloudy
7:36 AM 3.2 °F - -0.4 °F 85% 30.17 in 6.0 mi Calm Calm - N/A   Partly Cloudy
7:51 AM 1.9 °F - -0.9 °F 88% 30.27 in 5.0 mi Calm Calm - N/A   Mostly Cloudy
8:25 AM 3.2 °F - 1.4 °F 92% 30.16 in 0.8 mi Calm Calm - N/A   Mist
8:33 AM 5.0 °F - 3.2 °F 92% 30.15 in 0.2 mi Calm Calm - N/A Fog Light Freezing Fog
8:51 AM 5.0 °F -2.1 °F 3.0 °F 92% 30.24 in 0.2 mi WSW 3.5 mph - N/A Fog Light Freezing Fog
9:01 AM 6.8 °F -0.1 °F 5.0 °F 92% 30.16 in 1.0 mi SSW 3.5 mph - N/A   Mist
9:18 AM 6.8 °F -0.1 °F 5.0 °F 92% 30.14 in 5.0 mi South 3.5 mph - N/A   Mist
9:51 AM 10.9 °F - 10.0 °F 96% 30.19 in 5.0 mi Calm Calm - N/A   Clear
10:51 AM 19.9 °F - 19.0 °F 96% 30.08 in 6.0 mi Calm Calm - N/A   Clear
11:51 AM 28.0 °F 17.5 °F 23.0 °F 81% 30.07 in 10.0 mi SW 12.7 mph - N/A   Clear
1:51 PM 36.0 °F 27.5 °F 26.1 °F 67% 29.92 in 10.0 mi SW 12.7 mph - N/A   Overcast
2:51 PM 36.0 °F 28.0 °F 27.0 °F 70% 29.91 in 10.0 mi SW 11.5 mph - N/A   Overcast
3:51 PM 37.0 °F 29.3 °F 28.9 °F 73% 29.90 in 10.0 mi SW 11.5 mph 17.3 mph N/A   Overcast
4:09 PM 37.4 °F 29.8 °F 30.2 °F 75% 29.84 in 10.0 mi SW 11.5 mph 20.7 mph N/A   Overcast
4:38 PM 37.4 °F 28.5 °F 30.2 °F 75% 29.82 in 10.0 mi SW 15.0 mph - N/A   Overcast
4:51 PM 37.0 °F 27.7 °F 30.0 °F 76% 29.89 in 10.0 mi SW 16.1 mph 20.7 mph N/A   Overcast
5:05 PM 37.4 °F 30.3 °F 30.2 °F 75% 29.83 in 10.0 mi WSW 10.4 mph 21.9 mph N/A   Overcast
5:51 PM 37.0 °F 26.7 °F 30.0 °F 76% 29.91 in 10.0 mi WSW 19.6 mph 28.8 mph N/A   Overcast
6:51 PM 36.0 °F 27.5 °F 28.9 °F 76% 29.97 in 10.0 mi WSW 12.7 mph 38.0 mph N/A   Overcast
7:16 PM 35.6 °F 27.5 °F 26.6 °F 70% 29.90 in 10.0 mi West 11.5 mph 24.2 mph N/A   Overcast
7:51 PM 35.1 °F 25.5 °F 27.0 °F 72% 29.99 in 10.0 mi West 15.0 mph 33.4 mph N/A   Overcast
8:51 PM 35.1 °F 25.2 °F 27.0 °F 72% 29.99 in 10.0 mi WSW 16.1 mph 27.6 mph N/A   Overcast
9:51 PM 34.0 °F 23.8 °F 28.0 °F 79% 30.00 in 5.0 mi WSW 16.1 mph 25.3 mph 0.00 in Snow Light Snow
10:13 PM 33.8 °F 24.3 °F 28.4 °F 81% 29.93 in 3.0 mi WSW 13.8 mph 25.3 mph 0.00 in Snow Light Snow
10:21 PM 33.8 °F 26.4 °F 28.4 °F 81% 29.93 in 2.5 mi WSW 9.2 mph 24.2 mph 0.00 in Snow Light Snow
10:36 PM 33.8 °F 23.9 °F 28.4 °F 81% 29.94 in 1.8 mi West 15.0 mph 31.1 mph 0.00 in Snow Light Snow
10:51 PM 33.1 °F 22.6 °F 28.9 °F 85% 30.02 in 1.5 mi West 16.1 mph 32.2 mph 0.00 in Snow Light Snow
11:05 PM 33.8 °F 25.8 °F 28.4 °F 81% 29.95 in 2.5 mi West 10.4 mph 31.1 mph 0.00 in Snow Light Snow
11:16 PM 33.8 °F 25.8 °F 28.4 °F 81% 29.97 in 1.2 mi West 10.4 mph 26.5 mph 0.01 in Snow Light Snow
11:26 PM 33.8 °F 24.3 °F 26.6 °F 75% 29.98 in 3.0 mi West 13.8 mph 34.5 mph 0.01 in Snow Light Snow
11:51 PM 33.1 °F 24.9 °F 25.0 °F 72% 30.05 in 10.0 mi West 10.4 mph 21.9 mph 0.01 in   Overcast